Ogden, UT

12:10 AM MDT on October 23, 2019 (GMT -0600)
Ogden-Hinckley

Weather History for KOGD - September, 2019

Change the Weather History Date:

Sunday, September 22, 2019

  Actual Average Record
Temperature  
Mean Temperature 56 °F -  
Max Temperature 71 °F 74 °F 90 °F (1966)
Min Temperature 43 °F 42 °F 32 °F (1970)
Degree Days  
Heating Degree Days 9    
Growing Degree Days 6 (Base 50)    
Moisture  
Dew Point 33 °F    
Average Humidity 47    
Maximum Humidity 68    
Minimum Humidity 22    
Precipitation  
Precipitation 0.00 in - - ()
Sea Level Pressure  
Sea Level Pressure 30.04 in    
Wind  
Wind Speed 7 mph (SSE)    
Max Wind Speed 10 mph    
Max Gust Speed -    
Visibility 10 miles    
Events      
Averages and records for this station are not official NWS values.
T = Trace of Precipitation, MM = Missing Value Source: NWS Daily Summary

Daily Weather History Graph

Daily Weather History Graph

Search for Another Location

Airport or City:

Astronomy

Sep. 22, 2019 Rise Set
Actual Time 7:15 AM MDT 7:25 PM MDT
Civil Twilight 6:47 AM MDT 7:52 PM MDT
Nautical Twilight 6:15 AM MDT 8:25 PM MDT
Astronomical Twilight 5:42 AM MDT 8:57 PM MDT
Moon 12:04 AM MDT (9/22) 3:28 PM MDT (9/22)
Length of Visible Light 13h 05m
Length of Day
12h 10m
Last Quarter, 43% of the Moon is Illuminated
Sep 22
Last Quarter
Sep 28
New
Oct 5
First Quarter
Oct 13
Full
Oct 21
Last Quarter

Hourly Weather History & Observations

Time (MDT) Temp. Windchill Dew Point Humidity Pressure Visibility Wind Dir Wind Speed Gust Speed Precip Events Conditions
12:53 AM 46.0 °F 41.9 °F 35.1 °F 66% 30.07 in 10.0 mi South 8.1 mph - N/A   Clear
1:53 AM 45.0 °F 40.1 °F 35.1 °F 68% 30.09 in 10.0 mi South 9.2 mph - N/A   Clear
2:53 AM 44.1 °F 39.0 °F 34.0 °F 68% 30.09 in 10.0 mi South 9.2 mph - N/A   Clear
3:53 AM 44.1 °F 39.0 °F 34.0 °F 68% 30.08 in 10.0 mi South 9.2 mph - N/A   Clear
4:53 AM 44.1 °F 39.0 °F 33.1 °F 65% 30.09 in 10.0 mi South 9.2 mph - N/A   Clear
5:53 AM 43.0 °F 37.2 °F 33.1 °F 68% 30.10 in 10.0 mi South 10.4 mph - N/A   Clear
6:53 AM 43.0 °F 38.2 °F 33.1 °F 68% 30.11 in 10.0 mi SSE 8.1 mph - N/A   Clear
7:53 AM 43.0 °F 38.2 °F 33.1 °F 68% 30.13 in 10.0 mi South 8.1 mph - N/A   Clear
8:53 AM 48.0 °F - 34.0 °F 58% 30.13 in 10.0 mi South 6.9 mph - N/A   Clear
9:53 AM 53.1 °F - 34.0 °F 48% 30.12 in 10.0 mi South 3.5 mph - N/A   Clear
10:53 AM 59.0 °F - 33.1 °F 38% 30.11 in 10.0 mi NNE 3.5 mph - N/A   Clear
11:53 AM 60.1 °F - 32.0 °F 35% 30.10 in 10.0 mi Calm Calm - N/A   Clear
12:53 PM 64.0 °F - 30.0 °F 28% 30.08 in 10.0 mi SSE 5.8 mph - N/A   Clear
1:53 PM 66.0 °F - 30.9 °F 27% 30.06 in 10.0 mi Variable 3.5 mph - N/A   Clear
2:53 PM 66.9 °F - 30.0 °F 25% 30.03 in 10.0 mi South 6.9 mph - N/A   Clear
3:53 PM 68.0 °F - 30.0 °F 24% 30.01 in 10.0 mi WSW 3.5 mph - N/A   Clear
4:53 PM 68.0 °F - 30.0 °F 24% 29.98 in 10.0 mi SSE 4.6 mph - N/A   Clear
5:53 PM 69.1 °F - 28.9 °F 22% 29.96 in 10.0 mi SSE 3.5 mph - N/A   Clear
6:53 PM 69.1 °F - 30.9 °F 24% 29.95 in 10.0 mi Calm Calm - N/A   Clear
7:53 PM 63.0 °F - 37.0 °F 38% 29.96 in 10.0 mi ENE 5.8 mph - N/A   Clear
8:53 PM 57.0 °F - 39.0 °F 51% 29.96 in 10.0 mi South 6.9 mph - N/A   Clear
9:53 PM 55.9 °F - 37.0 °F 49% 29.95 in 10.0 mi South 8.1 mph - N/A   Clear
10:53 PM 55.9 °F - 35.1 °F 45% 29.93 in 10.0 mi South 8.1 mph - N/A   Clear
11:53 PM 54.0 °F - 35.1 °F 49% 29.92 in 10.0 mi South 3.5 mph - N/A   Clear